Location: Bittkow
(50.3000°N, 19.0000°E)
Time: 17:03:26
(UTC+00:00)

Cosmos 2366 rocket - Pass Details

Date: 19 September 2020
Orbit: 956 x 996 km, 82.9° (Epoch: 30 October)

Event Time Altitude Azimuth Distance (km) Brightness Sun altitude
Rises 01:18:41 0° 347° (NNW) 3,691 7.4 -28.0°
Reaches altitude 10° 01:21:15 10° 342° (NNW) 2,745 6.6 -27.7°
Enters shadow 01:26:37 50° 291° (WNW) 1,242 4.3 -27.1°
